Time,TemperatureF,DewpointF,PressureIn,WindDirection,WindDirectionDegrees,WindSpeedMPH,WindSpeedGustMPH,Humidity,HourlyPrecipIn,Conditions,Clouds,dailyrainin,SoftwareType,DateUTC
2013-01-22 00:04:00,46.9,42.8,29.58,SW,225,1.7,6.2,86,0.00,,,0.29,,2013-01-21 23:04:00,
2013-01-22 00:09:00,46.9,42.8,29.58,SSW,202,2.2,4.9,86,0.00,,,0.00,,2013-01-21 23:09:00,
2013-01-22 00:14:00,46.9,43.2,29.58,SSE,157,3.1,8.0,87,0.00,,,0.00,,2013-01-21 23:14:00,
2013-01-22 00:19:00,46.9,43.2,29.61,South,180,4.0,8.9,87,0.00,,,0.00,,2013-01-21 23:19:00,
2013-01-22 00:24:00,46.8,43.0,29.61,SW,225,5.8,8.0,87,0.00,,,0.00,,2013-01-21 23:24:00,
2013-01-22 00:29:00,46.9,43.2,29.55,SW,225,4.9,10.2,87,0.00,,,0.00,,2013-01-21 23:29:00,
2013-01-22 00:34:00,46.9,43.2,29.55,SW,225,3.5,8.9,87,0.00,,,0.00,,2013-01-21 23:34:00,
2013-01-22 00:39:00,46.9,43.2,29.61,South,180,3.1,7.6,87,0.00,,,0.00,,2013-01-21 23:39:00,
2013-01-22 00:44:00,46.9,42.8,29.61,SSW,202,3.5,7.6,86,0.00,,,0.00,,2013-01-21 23:44:00,
2013-01-22 00:49:00,46.9,42.8,29.58,SSW,202,2.6,6.2,86,0.00,,,0.00,,2013-01-21 23:49:00,
2013-01-22 00:54:00,46.8,42.6,29.58,South,180,2.6,3.1,86,0.00,,,0.00,,2013-01-21 23:54:00,
2013-01-22 00:59:00,46.8,42.6,29.58,SW,225,3.1,6.2,86,0.00,,,0.00,,2013-01-21 23:59:00,
2013-01-22 01:04:00,46.9,42.8,29.58,SSW,202,2.2,3.5,86,0.00,,,0.00,,2013-01-22 00:04:00,
2013-01-22 01:09:00,46.8,42.6,29.55,South,180,1.7,2.2,86,0.00,,,0.00,,2013-01-22 00:09:00,
2013-01-22 01:14:00,46.8,42.6,29.55,SSW,202,2.6,6.2,86,0.00,,,0.00,,2013-01-22 00:14:00,
2013-01-22 01:19:00,46.8,43.0,29.58,South,180,2.6,4.9,87,0.00,,,0.00,,2013-01-22 00:19:00,
2013-01-22 01:24:00,46.8,43.0,29.58,SSW,202,1.3,3.1,87,0.00,,,0.00,,2013-01-22 00:24:00,
2013-01-22 01:29:00,46.8,43.0,29.55,SSW,202,3.1,4.9,87,0.00,,,0.00,,2013-01-22 00:29:00,
2013-01-22 01:34:00,46.9,43.5,29.55,South,180,3.5,5.8,88,0.00,,,0.00,,2013-01-22 00:34:00,
2013-01-22 01:39:00,46.9,43.5,29.58,SE,135,2.2,3.1,88,0.00,,,0.00,,2013-01-22 00:39:00,
2013-01-22 01:44:00,46.9,43.5,29.58,SE,135,1.3,1.7,88,0.00,,,0.00,,2013-01-22 00:44:00,
2013-01-22 01:49:00,46.9,43.5,29.58,SSE,157,0.4,0.4,88,0.00,,,0.00,,2013-01-22 00:49:00,
2013-01-22 01:54:00,46.9,43.5,29.58,SSE,157,1.3,1.3,88,0.00,,,0.00,,2013-01-22 00:54:00,
2013-01-22 01:59:00,46.9,43.5,29.58,SSE,157,1.3,2.2,88,0.00,,,0.00,,2013-01-22 00:59:00,
2013-01-22 02:04:00,46.9,43.5,29.58,SSE,157,0.8,0.8,88,0.00,,,0.00,,2013-01-22 01:04:00,
2013-01-22 02:09:00,46.9,43.5,29.61,South,180,2.2,2.2,88,0.00,,,0.00,,2013-01-22 01:09:00,
2013-01-22 02:14:00,46.9,43.5,29.61,SSW,202,3.1,4.0,88,0.00,,,0.00,,2013-01-22 01:14:00,
2013-01-22 02:19:00,47.1,43.7,29.61,SSW,202,1.3,4.0,88,0.00,,,0.00,,2013-01-22 01:19:00,
2013-01-22 02:24:00,46.9,43.5,29.61,South,180,1.7,1.7,88,0.00,,,0.00,,2013-01-22 01:24:00,
2013-01-22 02:29:00,46.9,43.5,29.61,SSW,202,1.3,1.3,88,0.00,,,0.00,,2013-01-22 01:29:00,
2013-01-22 02:34:00,47.1,43.9,29.61,SSE,157,1.7,1.7,89,0.00,,,0.00,,2013-01-22 01:34:00,
2013-01-22 02:39:00,47.1,43.7,29.61,South,180,0.4,1.7,88,0.00,,,0.00,,2013-01-22 01:39:00,
2013-01-22 02:44:00,46.9,43.5,29.61,SSE,157,0.0,0.0,88,0.00,,,0.00,,2013-01-22 01:44:00,
2013-01-22 02:49:00,46.9,43.5,29.61,SE,135,0.0,0.0,88,0.00,,,0.00,,2013-01-22 01:49:00,
2013-01-22 02:54:00,46.9,43.5,29.61,ESE,112,1.3,1.3,88,0.00,,,0.00,,2013-01-22 01:54:00,
2013-01-22 02:59:00,47.1,43.7,29.61,SSE,157,0.4,2.6,88,0.00,,,0.00,,2013-01-22 01:59:00,
2013-01-22 03:04:00,47.1,43.7,29.61,SE,135,0.8,2.2,88,0.00,,,0.00,,2013-01-22 02:04:00,
2013-01-22 03:09:00,46.9,43.5,29.61,SSE,157,0.4,2.6,88,0.00,,,0.00,,2013-01-22 02:09:00,
2013-01-22 03:14:00,46.9,43.5,29.61,SE,135,0.4,2.2,88,0.00,,,0.00,,2013-01-22 02:14:00,
2013-01-22 03:19:00,46.9,43.5,29.61,South,180,0.8,1.3,88,0.00,,,0.00,,2013-01-22 02:19:00,
2013-01-22 03:24:00,46.9,43.5,29.61,SSE,157,0.4,2.2,88,0.00,,,0.00,,2013-01-22 02:24:00,
2013-01-22 03:29:00,46.9,43.5,29.61,SE,135,0.4,2.2,88,0.00,,,0.00,,2013-01-22 02:29:00,
2013-01-22 03:34:00,46.9,43.5,29.61,SSE,157,0.8,0.8,88,0.00,,,0.00,,2013-01-22 02:34:00,
2013-01-22 03:39:00,46.8,43.3,29.61,SE,135,0.0,0.4,88,0.00,,,0.00,,2013-01-22 02:39:00,
2013-01-22 03:44:00,46.6,43.2,29.61,SSW,202,0.4,0.8,88,0.00,,,0.00,,2013-01-22 02:44:00,
2013-01-22 03:49:00,46.6,43.2,29.61,ESE,112,0.4,1.7,88,0.00,,,0.00,,2013-01-22 02:49:00,
2013-01-22 03:54:00,46.6,43.2,29.61,SW,225,1.7,2.2,88,0.00,,,0.00,,2013-01-22 02:54:00,
2013-01-22 03:59:00,46.6,43.2,29.61,West,270,1.7,3.5,88,0.00,,,0.00,,2013-01-22 02:59:00,
2013-01-22 04:04:00,46.6,43.2,29.61,South,180,0.8,0.8,88,0.00,,,0.00,,2013-01-22 03:04:00,
2013-01-22 04:09:00,46.6,42.8,29.61,South,180,0.8,0.8,87,0.00,,,0.00,,2013-01-22 03:09:00,
2013-01-22 04:19:00,46.8,42.6,29.64,SSW,202,1.7,1.7,86,0.00,,,0.00,,2013-01-22 03:19:00,
2013-01-22 04:24:00,46.8,42.4,29.64,South,180,1.3,2.2,85,0.00,,,0.00,,2013-01-22 03:24:00,
2013-01-22 04:29:00,46.6,42.3,29.64,WNW,292,0.8,3.1,85,0.00,,,0.00,,2013-01-22 03:29:00,
2013-01-22 04:34:00,46.8,42.4,29.64,WSW,247,1.7,3.1,85,0.00,,,0.00,,2013-01-22 03:34:00,
2013-01-22 04:39:00,46.8,42.1,29.61,WSW,247,2.6,4.4,84,0.00,,,0.00,,2013-01-22 03:39:00,
2013-01-22 04:44:00,46.9,41.9,29.61,SSW,202,1.7,2.6,83,0.00,,,0.00,,2013-01-22 03:44:00,
2013-01-22 04:49:00,46.9,41.9,29.61,South,180,1.3,1.3,83,0.00,,,0.00,,2013-01-22 03:49:00,
2013-01-22 04:54:00,46.8,41.7,29.61,SW,225,1.3,1.3,83,0.00,,,0.00,,2013-01-22 03:54:00,
2013-01-22 04:59:00,46.8,41.7,29.64,SW,225,2.2,4.4,83,0.00,,,0.00,,2013-01-22 03:59:00,
2013-01-22 05:04:00,46.8,41.7,29.64,WNW,292,1.7,7.6,83,0.00,,,0.00,,2013-01-22 04:04:00,
2013-01-22 05:09:00,46.8,41.7,29.64,SW,225,3.1,3.1,83,0.00,,,0.00,,2013-01-22 04:09:00,
2013-01-22 05:14:00,46.8,41.7,29.64,SW,225,3.1,5.8,83,0.00,,,0.00,,2013-01-22 04:14:00,
2013-01-22 05:19:00,46.6,41.5,29.61,West,270,3.5,12.5,83,0.00,,,0.00,,2013-01-22 04:19:00,
2013-01-22 05:24:00,46.6,41.4,29.61,WSW,247,3.5,4.0,82,0.00,,,0.00,,2013-01-22 04:24:00,
2013-01-22 05:29:00,46.6,41.4,29.64,SW,225,4.9,8.0,82,0.00,,,0.00,,2013-01-22 04:29:00,
2013-01-22 05:34:00,46.4,41.2,29.64,WSW,247,3.1,3.1,82,0.00,,,0.00,,2013-01-22 04:34:00,
2013-01-22 05:39:00,46.4,41.2,29.61,SSW,202,4.9,9.3,82,0.00,,,0.00,,2013-01-22 04:39:00,
2013-01-22 05:44:00,46.4,41.4,29.61,SW,225,2.6,5.8,83,0.00,,,0.00,,2013-01-22 04:44:00,
2013-01-22 05:49:00,46.2,41.0,29.61,SE,135,2.6,3.5,82,0.00,,,0.00,,2013-01-22 04:49:00,
2013-01-22 05:54:00,46.2,41.2,29.61,SSW,202,2.6,3.1,83,0.00,,,0.00,,2013-01-22 04:54:00,
2013-01-22 05:59:00,46.0,41.0,29.64,SSW,202,3.5,3.5,83,0.00,,,0.00,,2013-01-22 04:59:00,
2013-01-22 06:04:00,46.0,41.0,29.64,SW,225,3.5,3.5,83,0.00,,,0.00,,2013-01-22 05:04:00,
2013-01-22 06:09:00,46.0,41.0,29.64,SSW,202,3.5,4.0,83,0.00,,,0.00,,2013-01-22 05:09:00,
2013-01-22 06:14:00,46.0,41.0,29.64,SSW,202,3.1,4.9,83,0.00,,,0.00,,2013-01-22 05:14:00,
2013-01-22 06:19:00,45.9,40.8,29.61,WSW,247,4.0,6.2,83,0.00,,,0.00,,2013-01-22 05:19:00,
2013-01-22 06:24:00,45.9,40.8,29.61,SSE,157,1.7,1.7,83,0.00,,,0.00,,2013-01-22 05:24:00,
2013-01-22 06:29:00,45.9,40.8,29.64,SW,225,2.6,3.1,83,0.00,,,0.00,,2013-01-22 05:29:00,
2013-01-22 06:34:00,45.9,40.8,29.64,WSW,247,1.7,4.0,83,0.00,,,0.00,,2013-01-22 05:34:00,
2013-01-22 06:39:00,45.9,40.8,29.64,South,180,2.6,2.6,83,0.00,,,0.00,,2013-01-22 05:39:00,
2013-01-22 06:44:00,45.9,40.6,29.64,SW,225,4.0,4.0,82,0.00,,,0.00,,2013-01-22 05:44:00,
2013-01-22 06:49:00,45.9,40.6,29.64,West,270,1.3,0.0,82,0.00,,,0.00,,2013-01-22 05:49:00,
2013-01-22 06:54:00,45.9,40.6,29.64,SW,225,2.6,5.3,82,0.00,,,0.00,,2013-01-22 05:54:00,
2013-01-22 07:04:00,45.9,40.6,29.64,SSW,202,3.1,3.1,82,0.00,,,0.00,,2013-01-22 06:04:00,
2013-01-22 07:09:00,45.9,40.6,29.64,WNW,292,3.1,3.1,82,0.00,,,0.00,,2013-01-22 06:09:00,
2013-01-22 07:14:00,45.7,40.5,29.64,SSW,202,4.9,5.3,82,0.00,,,0.00,,2013-01-22 06:14:00,
2013-01-22 07:19:00,45.7,40.5,29.64,SW,225,3.1,6.2,82,0.00,,,0.00,,2013-01-22 06:19:00,
2013-01-22 07:24:00,45.7,40.1,29.64,SSW,202,3.5,3.5,81,0.00,,,0.00,,2013-01-22 06:24:00,
2013-01-22 07:29:00,45.7,40.1,29.64,SSW,202,2.6,2.6,81,0.00,,,0.00,,2013-01-22 06:29:00,
2013-01-22 07:34:00,45.7,40.1,29.64,SSW,202,3.5,8.0,81,0.00,,,0.00,,2013-01-22 06:34:00,
2013-01-22 07:39:00,45.7,40.1,29.64,NW,315,2.2,5.3,81,0.00,,,0.00,,2013-01-22 06:39:00,
2013-01-22 07:44:00,45.7,40.1,29.64,WSW,247,5.3,7.6,81,0.00,,,0.00,,2013-01-22 06:44:00,
2013-01-22 07:49:00,45.7,40.1,29.67,SW,225,3.5,3.5,81,0.00,,,0.00,,2013-01-22 06:49:00,
2013-01-22 07:59:00,45.7,39.7,29.64,SW,225,3.1,6.2,80,0.00,,,0.00,,2013-01-22 06:59:00,
2013-01-22 08:04:00,45.7,39.4,29.64,SW,225,4.9,8.9,79,0.00,,,0.00,,2013-01-22 07:04:00,
2013-01-22 08:09:00,45.7,39.4,29.61,South,180,3.1,4.9,79,0.00,,,0.00,,2013-01-22 07:09:00,
2013-01-22 08:14:00,45.9,39.0,29.61,SSW,202,4.9,4.9,77,0.00,,,0.00,,2013-01-22 07:14:00,
2013-01-22 08:19:00,45.9,38.7,29.61,WSW,247,4.9,9.3,76,0.00,,,0.00,,2013-01-22 07:19:00,
2013-01-22 08:24:00,45.9,38.7,29.61,WSW,247,5.3,8.9,76,0.00,,,0.00,,2013-01-22 07:24:00,
2013-01-22 08:29:00,45.9,39.0,29.64,SW,225,5.8,8.9,77,0.00,,,0.00,,2013-01-22 07:29:00,
2013-01-22 08:34:00,45.9,38.7,29.64,SSW,202,5.8,5.8,76,0.00,,,0.00,,2013-01-22 07:34:00,
2013-01-22 08:39:00,45.9,38.3,29.64,WNW,292,4.9,5.3,75,0.00,,,0.00,,2013-01-22 07:39:00,
2013-01-22 08:44:00,45.9,38.7,29.64,WSW,247,5.3,13.4,76,0.00,,,0.00,,2013-01-22 07:44:00,
2013-01-22 08:49:00,45.9,38.7,29.64,SSW,202,3.1,8.0,76,0.00,,,0.00,,2013-01-22 07:49:00,
2013-01-22 08:54:00,45.7,37.4,29.64,West,270,6.7,8.9,73,0.00,,,0.00,,2013-01-22 07:54:00,
2013-01-22 08:59:00,45.5,36.5,29.67,SW,225,4.4,8.0,71,0.00,,,0.00,,2013-01-22 07:59:00,
2013-01-22 09:04:00,45.5,36.9,29.67,WSW,247,3.5,5.8,72,0.00,,,0.00,,2013-01-22 08:04:00,
2013-01-22 09:09:00,45.3,36.7,29.64,South,180,4.0,7.6,72,0.00,,,0.00,,2013-01-22 08:09:00,
2013-01-22 09:14:00,45.3,36.7,29.64,WSW,247,5.8,8.5,72,0.00,,,0.00,,2013-01-22 08:14:00,
2013-01-22 09:19:00,45.3,36.7,29.67,SW,225,4.9,5.8,72,0.00,,,0.00,,2013-01-22 08:19:00,
2013-01-22 09:24:00,45.5,36.5,29.67,West,270,3.1,3.5,71,0.00,,,0.00,,2013-01-22 08:24:00,
2013-01-22 09:29:00,45.5,36.9,29.67,WSW,247,3.1,4.9,72,0.00,,,0.00,,2013-01-22 08:29:00,
2013-01-22 09:34:00,45.5,36.9,29.67,West,270,5.3,6.2,72,0.00,,,0.00,,2013-01-22 08:34:00,
2013-01-22 09:39:00,45.7,36.7,29.64,WSW,247,5.8,7.6,71,0.00,,,0.00,,2013-01-22 08:39:00,
2013-01-22 09:44:00,45.9,36.9,29.64,SW,225,3.5,3.5,71,0.00,,,0.00,,2013-01-22 08:44:00,
2013-01-22 09:49:00,45.9,36.9,29.67,SSW,202,6.2,10.7,71,0.00,,,0.00,,2013-01-22 08:49:00,
2013-01-22 09:54:00,45.9,36.5,29.67,WSW,247,5.8,6.2,70,0.00,,,0.00,,2013-01-22 08:54:00,
2013-01-22 09:59:00,46.0,36.7,29.67,SSW,202,4.9,12.5,70,0.00,,,0.00,,2013-01-22 08:59:00,
2013-01-22 10:04:00,46.4,37.0,29.67,SW,225,5.3,5.3,70,0.00,,,0.00,,2013-01-22 09:04:00,
2013-01-22 10:09:00,46.6,36.9,29.67,SSW,202,6.2,7.6,69,0.00,,,0.00,,2013-01-22 09:09:00,
2013-01-22 10:14:00,46.6,37.2,29.67,WSW,247,5.8,9.3,70,0.00,,,0.00,,2013-01-22 09:14:00,
2013-01-22 10:19:00,46.4,37.4,29.67,WSW,247,4.4,4.4,71,0.00,,,0.00,,2013-01-22 09:19:00,
2013-01-22 10:24:00,46.0,37.8,29.67,SSE,157,4.0,10.7,73,0.00,,,0.00,,2013-01-22 09:24:00,
2013-01-22 10:29:00,45.5,37.2,29.67,SSW,202,7.1,7.1,73,0.00,,,0.00,,2013-01-22 09:29:00,
2013-01-22 10:34:00,45.1,37.2,29.67,SSW,202,6.7,6.7,74,0.02,,,0.02,,2013-01-22 09:34:00,
2013-01-22 10:39:00,45.1,37.2,29.67,SW,225,4.0,4.0,74,0.02,,,0.02,,2013-01-22 09:39:00,
2013-01-22 10:44:00,45.3,37.4,29.67,NE,45,5.8,12.0,74,0.02,,,0.02,,2013-01-22 09:44:00,
2013-01-22 10:54:00,45.7,37.4,29.67,West,270,4.4,8.5,73,0.02,,,0.02,,2013-01-22 09:54:00,
2013-01-22 10:59:00,45.9,37.2,29.67,WSW,247,5.8,5.8,72,0.02,,,0.02,,2013-01-22 09:59:00,
2013-01-22 11:04:00,46.0,37.8,29.67,WSW,247,4.0,6.2,73,0.02,,,0.02,,2013-01-22 10:04:00,
2013-01-22 11:09:00,45.9,37.6,29.70,West,270,4.0,7.6,73,0.00,,,0.02,,2013-01-22 10:09:00,
2013-01-22 11:14:00,45.9,37.6,29.70,SE,135,3.5,10.7,73,0.00,,,0.02,,2013-01-22 10:14:00,
2013-01-22 11:19:00,45.9,37.2,29.67,SSE,157,4.0,4.4,72,0.00,,,0.02,,2013-01-22 10:19:00,
2013-01-22 11:24:00,45.7,37.4,29.67,West,270,4.4,4.9,73,0.00,,,0.02,,2013-01-22 10:24:00,
2013-01-22 11:29:00,44.6,36.0,29.67,WSW,247,5.8,9.8,72,0.00,,,0.02,,2013-01-22 10:29:00,
2013-01-22 11:34:00,44.2,36.7,29.67,WSW,247,6.2,9.3,75,0.04,,,0.06,,2013-01-22 10:34:00,
2013-01-22 11:39:00,44.2,37.0,29.70,NW,315,3.5,3.5,76,0.04,,,0.06,,2013-01-22 10:39:00,
2013-01-22 11:44:00,44.4,37.9,29.70,WSW,247,3.5,5.8,78,0.04,,,0.06,,2013-01-22 10:44:00,
2013-01-22 11:49:00,45.0,38.5,29.67,SW,225,4.4,4.4,78,0.04,,,0.06,,2013-01-22 10:49:00,
2013-01-22 11:54:00,45.3,39.0,29.67,West,270,3.1,4.4,79,0.04,,,0.06,,2013-01-22 10:54:00,
2013-01-22 12:04:00,45.7,39.2,29.67,SSW,202,4.4,8.5,78,0.04,,,0.06,,2013-01-22 11:04:00,
2013-01-22 12:09:00,45.9,38.7,29.67,SW,225,6.2,9.3,76,0.00,,,0.06,,2013-01-22 11:09:00,
2013-01-22 12:14:00,45.9,38.3,29.67,West,270,4.9,6.2,75,0.00,,,0.06,,2013-01-22 11:14:00,
2013-01-22 12:19:00,46.0,38.5,29.70,West,270,4.9,8.0,75,0.00,,,0.06,,2013-01-22 11:19:00,
2013-01-22 12:24:00,46.2,38.7,29.70,WNW,292,4.0,10.2,75,0.00,,,0.06,,2013-01-22 11:24:00,
2013-01-22 12:34:00,46.4,38.8,29.70,WSW,247,4.0,4.4,75,0.00,,,0.06,,2013-01-22 11:34:00,
2013-01-22 12:44:00,46.6,38.3,29.67,SW,225,4.0,8.0,73,0.00,,,0.06,,2013-01-22 11:44:00,
2013-01-22 12:49:00,46.8,38.1,29.67,West,270,5.3,8.5,72,0.00,,,0.06,,2013-01-22 11:49:00,
2013-01-22 12:54:00,46.8,37.8,29.67,SSW,202,4.9,6.7,71,0.00,,,0.06,,2013-01-22 11:54:00,
2013-01-22 12:59:00,46.9,37.9,29.67,SW,225,3.5,6.7,71,0.00,,,0.06,,2013-01-22 11:59:00,
2013-01-22 13:04:00,47.1,38.1,29.67,SSW,202,4.9,7.6,71,0.00,,,0.06,,2013-01-22 12:04:00,
2013-01-22 13:09:00,47.1,38.5,29.67,WNW,292,4.0,4.9,72,0.00,,,0.06,,2013-01-22 12:09:00,
2013-01-22 13:14:00,47.1,37.8,29.67,WSW,247,4.9,5.8,70,0.00,,,0.06,,2013-01-22 12:14:00,
2013-01-22 13:19:00,47.1,37.4,29.64,SW,225,4.0,5.8,69,0.00,,,0.06,,2013-01-22 12:19:00,
2013-01-22 13:24:00,47.3,37.6,29.64,West,270,4.4,7.6,69,0.00,,,0.06,,2013-01-22 12:24:00,
2013-01-22 13:29:00,47.5,37.8,29.67,West,270,4.0,6.2,69,0.00,,,0.06,,2013-01-22 12:29:00,
2013-01-22 13:34:00,47.5,37.4,29.67,West,270,4.9,8.0,68,0.00,,,0.06,,2013-01-22 12:34:00,
2013-01-22 13:39:00,47.5,36.7,29.67,North,0,4.9,4.9,66,0.00,,,0.06,,2013-01-22 12:39:00,
2013-01-22 13:44:00,47.5,36.7,29.67,West,270,4.0,5.3,66,0.00,,,0.06,,2013-01-22 12:44:00,
2013-01-22 13:49:00,47.5,36.7,29.64,WNW,292,3.5,3.5,66,0.00,,,0.06,,2013-01-22 12:49:00,
2013-01-22 13:54:00,47.5,36.1,29.64,WNW,292,4.0,7.6,65,0.00,,,0.06,,2013-01-22 12:54:00,
2013-01-22 13:59:00,47.5,35.8,29.64,West,270,2.6,5.3,64,0.00,,,0.06,,2013-01-22 12:59:00,
2013-01-22 14:04:00,47.5,35.8,29.64,West,270,2.2,3.5,64,0.00,,,0.06,,2013-01-22 13:04:00,
2013-01-22 14:09:00,47.3,34.9,29.67,West,270,3.5,5.8,62,0.00,,,0.06,,2013-01-22 13:09:00,
2013-01-22 14:19:00,47.3,35.6,29.64,West,270,0.4,2.2,64,0.00,,,0.06,,2013-01-22 13:19:00,
2013-01-22 14:24:00,47.3,35.6,29.64,WNW,292,3.1,8.5,64,0.00,,,0.06,,2013-01-22 13:24:00,
2013-01-22 14:29:00,46.8,34.3,29.67,West,270,4.0,4.4,62,0.00,,,0.06,,2013-01-22 13:29:00,
2013-01-22 14:34:00,46.4,34.7,29.67,SW,225,2.6,3.1,64,0.00,,,0.06,,2013-01-22 13:34:00,
2013-01-22 14:39:00,46.6,34.9,29.67,WNW,292,1.7,0.0,64,0.00,,,0.06,,2013-01-22 13:39:00,
2013-01-22 14:44:00,46.6,35.4,29.67,SW,225,1.3,2.2,65,0.00,,,0.06,,2013-01-22 13:44:00,
2013-01-22 14:49:00,46.6,35.4,29.70,NW,315,1.3,2.2,65,0.00,,,0.06,,2013-01-22 13:49:00,
2013-01-22 14:54:00,46.6,35.4,29.70,NW,315,3.1,3.1,65,0.00,,,0.06,,2013-01-22 13:54:00,
2013-01-22 14:59:00,46.6,35.4,29.67,WNW,292,2.2,3.1,65,0.00,,,0.06,,2013-01-22 13:59:00,
2013-01-22 15:04:00,46.8,36.0,29.67,NNW,337,2.2,2.2,66,0.00,,,0.06,,2013-01-22 14:04:00,
2013-01-22 15:09:00,46.9,36.1,29.70,West,270,0.8,0.0,66,0.00,,,0.06,,2013-01-22 14:09:00,
2013-01-22 15:14:00,46.8,36.7,29.70,SW,225,2.6,3.5,68,0.00,,,0.06,,2013-01-22 14:14:00,
2013-01-22 15:19:00,46.4,35.6,29.67,WNW,292,2.6,4.4,66,0.00,,,0.06,,2013-01-22 14:19:00,
2013-01-22 15:29:00,46.2,35.1,29.70,WSW,247,2.2,2.2,65,0.00,,,0.06,,2013-01-22 14:29:00,
2013-01-22 15:34:00,46.0,34.5,29.70,SW,225,2.6,4.9,64,0.00,,,0.06,,2013-01-22 14:34:00,
2013-01-22 15:44:00,45.5,34.7,29.73,WSW,247,3.1,4.4,66,0.00,,,0.06,,2013-01-22 14:44:00,
2013-01-22 15:49:00,46.0,36.0,29.73,SW,225,1.3,2.2,68,0.00,,,0.06,,2013-01-22 14:49:00,
2013-01-22 15:59:00,46.6,36.5,29.70,SSE,157,3.1,4.4,68,0.00,,,0.06,,2013-01-22 14:59:00,
2013-01-22 16:04:00,46.8,36.3,29.70,ESE,112,1.3,2.6,67,0.00,,,0.06,,2013-01-22 15:04:00,
2013-01-22 16:09:00,46.9,36.5,29.70,SW,225,2.2,4.0,67,0.00,,,0.06,,2013-01-22 15:09:00,
2013-01-22 16:14:00,47.1,37.0,29.70,West,270,1.3,1.3,68,0.00,,,0.06,,2013-01-22 15:14:00,
2013-01-22 16:19:00,47.7,37.6,29.73,SSW,202,0.4,1.7,68,0.00,,,0.06,,2013-01-22 15:19:00,
2013-01-22 16:24:00,47.8,36.9,29.73,WSW,247,0.8,1.7,66,0.00,,,0.06,,2013-01-22 15:24:00,
2013-01-22 16:29:00,48.0,37.0,29.73,NW,315,0.8,3.1,66,0.00,,,0.06,,2013-01-22 15:29:00,
2013-01-22 16:34:00,48.0,36.7,29.73,West,270,1.7,4.0,65,0.02,,,0.08,,2013-01-22 15:34:00,
2013-01-22 16:44:00,47.5,35.8,29.70,NW,315,1.3,1.3,64,0.02,,,0.08,,2013-01-22 15:44:00,
2013-01-22 16:49:00,47.1,35.8,29.70,WNW,292,1.3,2.6,65,0.02,,,0.08,,2013-01-22 15:49:00,
2013-01-22 16:54:00,46.9,35.8,29.70,NW,315,0.0,1.3,65,0.02,,,0.08,,2013-01-22 15:54:00,
2013-01-22 16:59:00,46.8,35.6,29.70,NW,315,0.8,0.8,65,0.02,,,0.08,,2013-01-22 15:59:00,
2013-01-22 17:04:00,46.8,35.6,29.70,SW,225,0.4,0.8,65,0.02,,,0.08,,2013-01-22 16:04:00,
2013-01-22 17:09:00,46.6,35.4,29.73,SW,225,0.8,1.3,65,0.00,,,0.08,,2013-01-22 16:09:00,
2013-01-22 17:14:00,46.4,35.2,29.73,WNW,292,0.4,0.0,65,0.00,,,0.08,,2013-01-22 16:14:00,
2013-01-22 17:19:00,46.2,35.1,29.76,West,270,0.4,0.0,65,0.00,,,0.08,,2013-01-22 16:19:00,
2013-01-22 17:24:00,46.2,35.4,29.76,WNW,292,1.3,1.3,66,0.00,,,0.08,,2013-01-22 16:24:00,
2013-01-22 17:29:00,46.0,34.9,29.73,West,270,0.4,0.0,65,0.00,,,0.08,,2013-01-22 16:29:00,
2013-01-22 17:34:00,45.9,34.7,29.73,WSW,247,2.2,4.9,65,0.00,,,0.08,,2013-01-22 16:34:00,
2013-01-22 17:39:00,45.7,34.9,29.76,WSW,247,0.4,2.2,66,0.00,,,0.08,,2013-01-22 16:39:00,
2013-01-22 17:44:00,45.7,34.9,29.76,SSW,202,0.0,0.4,66,0.00,,,0.08,,2013-01-22 16:44:00,
2013-01-22 17:49:00,45.5,34.7,29.76,WSW,247,0.0,0.0,66,0.00,,,0.08,,2013-01-22 16:49:00,
2013-01-22 17:59:00,45.3,34.5,29.76,SSW,202,0.0,0.8,66,0.00,,,0.08,,2013-01-22 16:59:00,
2013-01-22 18:04:00,45.3,34.5,29.76,SE,135,0.0,0.0,66,0.00,,,0.08,,2013-01-22 17:04:00,
2013-01-22 18:09:00,45.1,34.7,29.73,SE,135,0.0,0.0,67,0.00,,,0.08,,2013-01-22 17:09:00,
2013-01-22 18:14:00,45.1,35.1,29.73,SE,135,0.0,0.0,68,0.00,,,0.08,,2013-01-22 17:14:00,
2013-01-22 18:19:00,45.5,35.4,29.73,SE,135,0.0,0.0,68,0.00,,,0.08,,2013-01-22 17:19:00,
2013-01-22 18:24:00,45.3,34.9,29.73,East,90,0.0,0.0,67,0.00,,,0.08,,2013-01-22 17:24:00,
2013-01-22 18:29:00,45.1,35.1,29.76,East,90,1.3,1.7,68,0.00,,,0.08,,2013-01-22 17:29:00,
2013-01-22 18:34:00,45.1,35.1,29.76,East,90,0.4,1.3,68,0.00,,,0.08,,2013-01-22 17:34:00,
2013-01-22 18:44:00,45.1,34.7,29.76,East,90,0.0,0.0,67,0.00,,,0.08,,2013-01-22 17:44:00,
2013-01-22 18:54:00,45.0,34.2,29.76,NE,45,0.0,0.0,66,0.00,,,0.08,,2013-01-22 17:54:00,
2013-01-22 18:59:00,44.8,34.3,29.79,NE,45,0.4,0.4,67,0.00,,,0.08,,2013-01-22 17:59:00,
2013-01-22 19:09:00,44.4,34.3,29.79,East,90,0.4,0.8,68,0.00,,,0.08,,2013-01-22 18:09:00,
2013-01-22 19:19:00,44.1,34.2,29.76,East,90,0.4,0.0,68,0.00,,,0.08,,2013-01-22 18:19:00,
2013-01-22 19:24:00,44.1,34.2,29.76,East,90,0.8,1.3,68,0.00,,,0.08,,2013-01-22 18:24:00,
2013-01-22 19:34:00,43.9,34.3,29.79,SE,135,0.4,0.4,69,0.00,,,0.08,,2013-01-22 18:34:00,
2013-01-22 19:39:00,43.9,34.0,29.79,East,90,0.4,0.0,68,0.00,,,0.08,,2013-01-22 18:39:00,
2013-01-22 19:44:00,44.1,34.2,29.79,East,90,0.4,0.0,68,0.00,,,0.08,,2013-01-22 18:44:00,
2013-01-22 19:49:00,44.2,34.3,29.76,East,90,0.4,0.4,68,0.00,,,0.08,,2013-01-22 18:49:00,
2013-01-22 19:54:00,44.2,34.3,29.76,SE,135,0.4,1.3,68,0.00,,,0.08,,2013-01-22 18:54:00,
2013-01-22 19:59:00,44.2,34.3,29.79,SE,135,0.8,1.7,68,0.00,,,0.08,,2013-01-22 18:59:00,
2013-01-22 20:04:00,43.9,33.6,29.79,SE,135,2.2,2.6,67,0.00,,,0.08,,2013-01-22 19:04:00,
2013-01-22 20:09:00,43.5,33.6,29.79,SE,135,0.8,1.3,68,0.00,,,0.08,,2013-01-22 19:09:00,
2013-01-22 20:14:00,43.5,33.6,29.79,SE,135,0.8,1.7,68,0.00,,,0.08,,2013-01-22 19:14:00,
2013-01-22 20:19:00,43.5,33.6,29.79,SE,135,0.4,0.0,68,0.00,,,0.08,,2013-01-22 19:19:00,
2013-01-22 20:24:00,43.5,33.6,29.79,SE,135,0.0,0.4,68,0.00,,,0.08,,2013-01-22 19:24:00,
2013-01-22 20:29:00,43.5,33.6,29.79,SE,135,0.0,0.0,68,0.00,,,0.08,,2013-01-22 19:29:00,
2013-01-22 20:34:00,43.9,34.0,29.79,SE,135,0.0,0.0,68,0.00,,,0.08,,2013-01-22 19:34:00,
2013-01-22 20:39:00,43.9,34.0,29.79,SE,135,1.7,2.6,68,0.00,,,0.08,,2013-01-22 19:39:00,
2013-01-22 20:44:00,43.5,33.3,29.79,SE,135,1.3,1.7,67,0.00,,,0.08,,2013-01-22 19:44:00,
2013-01-22 20:49:00,43.5,33.6,29.79,SE,135,1.3,1.7,68,0.00,,,0.08,,2013-01-22 19:49:00,
2013-01-22 20:54:00,43.5,33.6,29.79,SE,135,1.3,1.7,68,0.00,,,0.08,,2013-01-22 19:54:00,
2013-01-22 20:59:00,43.5,33.6,29.79,SE,135,0.0,0.8,68,0.00,,,0.08,,2013-01-22 19:59:00,
2013-01-22 21:04:00,43.3,33.4,29.79,SE,135,0.4,1.7,68,0.00,,,0.08,,2013-01-22 20:04:00,
2013-01-22 21:09:00,43.2,33.3,29.79,SE,135,0.8,0.0,68,0.00,,,0.08,,2013-01-22 20:09:00,
2013-01-22 21:14:00,43.2,33.6,29.79,SE,135,0.8,2.2,69,0.00,,,0.08,,2013-01-22 20:14:00,
2013-01-22 21:19:00,43.0,33.4,29.79,SE,135,0.4,0.8,69,0.00,,,0.08,,2013-01-22 20:19:00,
2013-01-22 21:24:00,42.8,33.3,29.79,SE,135,1.3,2.2,69,0.00,,,0.08,,2013-01-22 20:24:00,
2013-01-22 21:29:00,42.8,33.6,29.79,SE,135,0.8,2.2,70,0.00,,,0.08,,2013-01-22 20:29:00,
2013-01-22 21:34:00,42.3,33.4,29.79,SE,135,0.8,0.0,71,0.00,,,0.08,,2013-01-22 20:34:00,
2013-01-22 21:39:00,42.3,33.4,29.82,SE,135,0.4,1.7,71,0.00,,,0.08,,2013-01-22 20:39:00,
2013-01-22 21:49:00,42.4,33.3,29.79,SE,135,0.0,0.0,70,0.00,,,0.08,,2013-01-22 20:49:00,
2013-01-22 21:59:00,42.3,33.1,29.82,ESE,112,1.3,3.5,70,0.00,,,0.08,,2013-01-22 20:59:00,
2013-01-22 22:04:00,42.3,33.1,29.82,SE,135,0.4,1.3,70,0.00,,,0.08,,2013-01-22 21:04:00,
2013-01-22 22:09:00,42.3,33.4,29.82,ESE,112,0.4,1.3,71,0.00,,,0.08,,2013-01-22 21:09:00,
2013-01-22 22:14:00,42.3,33.4,29.82,East,90,1.3,1.7,71,0.00,,,0.08,,2013-01-22 21:14:00,
2013-01-22 22:19:00,42.4,33.3,29.82,SE,135,0.4,1.7,70,0.00,,,0.08,,2013-01-22 21:19:00,
2013-01-22 22:24:00,42.3,33.1,29.82,SE,135,1.7,4.9,70,0.00,,,0.08,,2013-01-22 21:24:00,
2013-01-22 22:34:00,41.9,32.7,29.82,SE,135,1.7,2.2,70,0.00,,,0.08,,2013-01-22 21:34:00,
2013-01-22 22:39:00,42.3,33.1,29.79,SE,135,1.3,1.3,70,0.00,,,0.08,,2013-01-22 21:39:00,
2013-01-22 22:44:00,42.8,33.6,29.79,SE,135,0.8,2.6,70,0.00,,,0.08,,2013-01-22 21:44:00,
2013-01-22 22:49:00,43.2,34.0,29.79,SE,135,0.8,0.8,70,0.00,,,0.08,,2013-01-22 21:49:00,
2013-01-22 22:54:00,43.0,33.8,29.79,SE,135,1.7,1.7,70,0.00,,,0.08,,2013-01-22 21:54:00,
2013-01-22 22:59:00,42.4,33.3,29.82,SE,135,1.7,2.6,70,0.00,,,0.08,,2013-01-22 21:59:00,
2013-01-22 23:04:00,42.4,33.6,29.82,SE,135,1.7,1.7,71,0.00,,,0.08,,2013-01-22 22:04:00,
2013-01-22 23:09:00,42.8,34.3,29.79,SE,135,2.2,3.1,72,0.00,,,0.08,,2013-01-22 22:09:00,
2013-01-22 23:14:00,43.2,35.1,29.79,SE,135,1.7,2.2,73,0.00,,,0.08,,2013-01-22 22:14:00,
2013-01-22 23:19:00,43.5,35.4,29.82,SE,135,1.3,1.3,73,0.00,,,0.08,,2013-01-22 22:19:00,
2013-01-22 23:24:00,43.7,35.6,29.82,SE,135,0.8,0.8,73,0.00,,,0.08,,2013-01-22 22:24:00,
2013-01-22 23:34:00,43.2,35.1,29.82,SE,135,1.3,2.2,73,0.00,,,0.08,,2013-01-22 22:34:00,
2013-01-22 23:39:00,42.8,34.7,29.82,SE,135,0.8,2.2,73,0.00,,,0.08,,2013-01-22 22:39:00,
2013-01-22 23:44:00,42.6,34.9,29.82,SE,135,1.3,3.1,74,0.00,,,0.08,,2013-01-22 22:44:00,
2013-01-22 23:49:00,42.6,35.2,29.82,SE,135,1.3,3.1,75,0.00,,,0.08,,2013-01-22 22:49:00,
2013-01-22 23:54:00,43.2,35.6,29.82,SE,135,1.7,3.1,75,0.00,,,0.08,,2013-01-22 22:54:00,
2013-01-22 23:59:00,42.8,35.4,29.82,SE,135,2.2,2.6,75,0.00,,,0.08,,2013-01-22 22:59:00,